APRIZESAT 2

Satellite information

Favourite Embed

Satellite Type and Status

PAYLOADIN ORBIT

Key statistics

Satellite APRIZESAT 2 at a glance.

Uptime

7783

Days in orbit

Revolutions

≈ 14.4

Per day

Orbit

SSO

Sun Synchronous Orbit

Inclination

98.1

Latest

Satellite identification and parameters

Extended collection of information and parameters for APRIZESAT 2.

Object identification

Identified? True

Debris? False

Object name: APRIZESAT 2

International designator: 2004-025A

Object number (NORAD): 28366

Object ID (CCSDS): 28366

Country: UNITED STATES OF AMERICA (US)

Current information (Y/N): Y

RCS size: SMALL

Orbital parameters

Period: 100.148 minutes

Inclination: 98.0823 deg

SMA: 7143.668 km

Apoapsis: 840.265 km

Periapsis: 690.802 km

RAAN: 106.9177 deg

Eccentricy: 0.0104612

Argument of periapsis: 258.287 deg

Mean anomaly: 100.6565 deg

Mean motion: 14.37874023 rev/day

Mean motion (dot): 0.00000487 rev/day2

B* drag term: 0.00016507693 1/REarth

Two-line elements (TLE)

Creation date: Oct. 19, 2025, 2:20 a.m.

Reference frame: TEME

Reference center: EARTH

Epoch: Oct. 18, 2025, 11:17 p.m. UTC

TLE line 0: 0 APRIZESAT 2

TLE line 1: 1 28366U 04025A 25291.97047038 .00000487 00000-0 16508-3 0 9995

TLE line 2: 2 28366 98.0823 106.9177 0104612 258.2870 100.6565 14.37874023116970

Live tracking on map

Real-time ground track for satellite APRIZESAT 2.

In-orbit conjunctions

There are no conjunctions computed for APRIZESAT 2, at the moment. Check back to stay up to date, as we update our databases every day.

Go to all conjunctions

Associated space launch

AprizeSat, is a constellation of small Low-Earth-Orbit satellites (64 satellites planned) to achieve a global communication system of data transmission and fixed and mobile asset tracking and monitoring (GMPCS).

APRIZESAT 2 was lifted into orbit during the mission ‘Dnepr | Aprizesat-2’, on board a Dnepr space rocket.

The launch took place on June 29, 2004, 6:30 a.m. from 109/95.

For more information about the launch, click the button.

Launch to space Dnepr | Aprizesat-2
Dnepr | Aprizesat-2

Agency: N/A

Status: Launch Successful

Launch date: June 29, 2004, 6:30 a.m. UTC

Rocket: Dnepr

Launch pad: 109/95

Location: Baikonur Cosmodrome, Republic of Kazakhstan

...

Latest news about this satellite

There are no fresh news available about this satellite. Check back as we update our databases every day.


Newsletter sign-up

Weekly statistics, charts and insights to help you stay on top of the space industry.